FW6363 Weather Reports


Display with metric or nautical units.
time (UTC)temp
F
wind
direction
speed
MPH
gust
MPH
rain 1hr
in
rain 24hr
in
rain mn
in
humidity
%
barometer
mb
20260507150052 76 360 1.0 3.0 0.00 0.00 0.00 25 1014.3
20260507144551 74 0 1.0 3.0 0.00 0.00 0.00 25 1014.2
20260507143049 73 0 0.0 2.0 0.00 0.00 0.00 25 1014.2
20260507141604 71 0 0.0 1.0 0.00 0.00 0.00 26 1014.2
20260507140049 70 0 0.0 2.0 0.00 0.00 0.00 27 1014.0
20260507134556 70 360 0.0 2.0 0.00 0.00 0.00 27 1013.9
20260507133051 70 360 0.0 5.0 0.00 0.00 0.00 27 1013.9
20260507131548 70 0 0.0 3.0 0.00 0.00 0.00 27 1013.7
20260507130053 70 0 0.0 2.0 0.00 0.00 0.00 26 1013.6
20260507124552 70 360 2.0 5.0 0.00 0.00 0.00 26 1013.6
20260507123049 70 0 1.0 5.0 0.00 0.00 0.00 26 1013.6
20260507121553 70 360 2.0 6.0 0.00 0.00 0.00 26 1013.4
20260507120059 71 0 2.0 5.0 0.00 0.00 0.00 26 1013.3
20260507114553 71 360 1.0 6.0 0.00 0.00 0.00 25 1013.4
20260507113053 71 360 2.0 5.0 0.00 0.00 0.00 25 1013.4
20260507111551 72 360 1.0 4.0 0.00 0.00 0.00 25 1013.5
20260507110056 72 0 1.0 5.0 0.00 0.00 0.00 24 1013.6
20260507104554 71 360 1.0 3.0 0.00 0.00 0.00 24 1013.7
20260507103053 71 0 0.0 5.0 0.00 0.00 0.00 24 1013.9
20260507101601 71 360 2.0 4.0 0.00 0.00 0.00 25 1014.0
20260507100159 71 360 3.0 4.0 0.00 0.00 0.00 25 1014.1
20260507094555 71 360 1.0 3.0 0.00 0.00 0.00 25 1014.1
20260507093048 71 360 1.0 5.0 0.00 0.00 0.00 24 1014.2
20260507091551 72 360 2.0 4.0 0.00 0.00 0.00 24 1014.2
20260507090048 72 360 2.0 4.0 0.00 0.00 0.00 23 1014.2
20260507084549 73 360 1.0 6.0 0.00 0.00 0.00 23 1014.3
20260507083050 74 360 1.0 5.0 0.00 0.00 0.00 22 1014.4
20260507081551 74 360 3.0 15.0 0.00 0.00 0.00 22 1014.5
20260507080051 74 360 4.0 16.0 0.00 0.00 0.00 22 1014.5
20260507074553 74 360 10.0 20.0 0.00 0.00 0.00 22 1014.6
20260507073107 74 360 9.0 16.0 0.00 0.00 0.00 22 1014.5
20260507071546 75 360 6.0 18.0 0.00 0.00 0.00 21 1014.5
20260507070051 75 360 11.0 18.0 0.00 0.00 0.00 21 1014.5
20260507064604 75 360 10.0 16.0 0.00 0.00 0.00 21 1014.5
20260507063102 75 360 9.0 16.0 0.00 0.00 0.00 21 1014.6
20260507061549 75 360 6.0 13.0 0.00 0.00 0.00 21 1014.5
20260507060051 76 360 7.0 14.0 0.00 0.00 0.00 21 1014.5
20260507054547 76 360 6.0 10.0 0.00 0.00 0.00 21 1014.5
20260507053045 76 360 4.0 11.0 0.00 0.00 0.00 21 1014.5
20260507051547 76 360 7.0 14.0 0.00 0.00 0.00 21 1014.5
20260507050056 76 360 8.0 14.0 0.00 0.00 0.00 21 1014.6
20260507044549 76 360 8.0 13.0 0.00 0.00 0.00 21 1014.4
20260507043050 76 360 5.0 11.0 0.00 0.00 0.00 21 1014.4
20260507041548 76 360 5.0 11.0 0.00 0.00 0.00 22 1014.2
20260507040056 76 360 6.0 11.0 0.00 0.00 0.00 22 1013.9
20260507034602 77 360 5.0 15.0 0.00 0.00 0.00 22 1013.8
20260507033103 77 360 6.0 12.0 0.00 0.00 0.00 22 1013.7
20260507031552 77 360 5.0 10.0 0.00 0.00 0.00 22 1013.5
20260507030054 77 360 6.0 11.0 0.00 0.00 0.00 22 1013.3
20260507024603 77 360 3.0 11.0 0.00 0.00 0.00 22 1013.0
20260507023050 78 360 8.0 16.0 0.00 0.00 0.00 22 1012.9
20260507021547 78 360 8.0 11.0 0.00 0.00 0.00 22 1012.7
20260507020047 78 360 4.0 8.0 0.00 0.00 0.00 21 1012.8
20260507014555 79 360 4.0 13.0 0.00 0.00 0.00 21 1012.6
20260507013058 80 360 4.0 13.0 0.00 0.00 0.00 21 1012.6
20260507011548 80 360 8.0 12.0 0.00 0.00 0.00 21 1012.5
20260507010053 80 360 5.0 14.0 0.00 0.00 0.00 20 1012.4
20260507004549 81 360 5.0 12.0 0.00 0.00 0.00 19 1012.4
20260507003047 81 360 5.0 16.0 0.00 0.00 0.00 19 1012.4
20260507001607 81 360 7.0 13.0 0.00 0.00 0.00 20 1012.4
20260507000048 82 360 7.0 16.0 0.00 0.00 0.00 19 1012.3
20260506234556 81 360 6.0 16.0 0.00 0.00 0.00 19 1012.4
20260506233045 82 360 5.0 15.0 0.00 0.00 0.00 19 1012.5
20260506231546 82 360 5.0 16.0 0.00 0.00 0.00 19 1012.6
20260506230045 81 360 9.0 17.0 0.00 0.00 0.00 20 1013.0
20260506224605 82 360 7.0 14.0 0.00 0.00 0.00 20 1012.9
20260506223049 82 360 8.0 14.0 0.00 0.00 0.00 19 1013.2
20260506221550 81 360 8.0 18.0 0.00 0.00 0.00 20 1013.3
20260506214545 83 360 5.0 11.0 0.00 0.00 0.00 19 1013.7
20260506213049 82 360 1.0 10.0 0.00 0.00 0.00 20 1014.0
20260506211554 80 360 8.0 16.0 0.00 0.00 0.00 21 1014.2
20260506210054 81 360 7.0 15.0 0.00 0.00 0.00 20 1014.4
20260506204548 81 360 2.0 8.0 0.00 0.00 0.00 20 1014.8
20260506203049 79 360 6.0 15.0 0.00 0.00 0.00 21 1014.9
20260506201548 79 360 9.0 15.0 0.00 0.00 0.00 21 1015.0
20260506200044 79 360 7.0 14.0 0.00 0.00 0.00 22 1015.1
20260506194553 78 360 5.0 15.0 0.00 0.00 0.00 22 1015.3
20260506193052 78 360 4.0 12.0 0.00 0.00 0.00 22 1015.4
20260506191548 76 360 4.0 17.0 0.00 0.00 0.00 25 1015.5
20260506190052 76 360 9.0 20.0 0.00 0.00 0.00 24 1015.8
20260506184546 76 360 7.0 16.0 0.00 0.00 0.00 25 1015.8
20260506183047 76 360 6.0 14.0 0.00 0.00 0.00 25 1016.0
20260506181559 75 360 6.0 17.0 0.00 0.00 0.00 26 1016.3
20260506180050 75 360 2.0 13.0 0.00 0.00 0.00 28 1016.3
20260506174545 73 360 6.0 15.0 0.00 0.00 0.00 29 1016.4
20260506173111 73 360 8.0 13.0 0.00 0.00 0.00 29 1016.5
20260506171556 73 360 6.0 13.0 0.00 0.00 0.00 30 1016.4
20260506170059 72 360 6.0 12.0 0.00 0.00 0.00 31 1016.4
20260506164548 70 360 9.0 15.0 0.00 0.00 0.00 32 1016.4
20260506163047 69 360 8.0 13.0 0.00 0.00 0.00 34 1016.3
20260506161550 69 360 7.0 11.0 0.00 0.00 0.00 33 1016.1
20260506154548 68 360 1.0 6.0 0.00 0.00 0.00 36 1016.1
20260506153047 67 360 1.0 4.0 0.00 0.00 0.00 36 1016.0
20260506151547 67 360 1.0 5.0 0.00 0.00 0.00 38 1016.1